STARLINK-1283, 45389

Orbit data source: Space-Track

STARLINK-1283, 45389 is a payload satellite owned by SpaceX/Seattle (US) in LEO that was launched on Wed, 18 Mar 2020 UTC via an FALCON 9 launch vehicle from the Air Force Eastern Test Range (AFETR). Payload-class satellites include a variety of spacecraft equipped with specific instruments for various scientific and technological missions. These include communications satellites like Starlink; space stations such as the ISS; scientific satellites like the Hubble; Earth observation satellites from companies like Planet Labs, Umbra, and HawkEye 360; GPS; miniature CubeSats for education and research; and military/defense satellites.

Loading next visibility...
Identifier
45389, 2020-019AF
Orbit
LEO
Last TLE update
17 hours ago
Origin
Manufacturer
SpaceX/Seattle
Mission
Operational Commercial Communications
Bus & Motor
STARLINK, Unknown motor
Mass
260 kg wet, ~248 kg dry
Launch date (UTC)
2020-03-18 (5 years ago)
Launch vehicle
FALCON 9
Launch site
Air Force Eastern Test Range (AFETR)
Object type
Payload
Rocket body
Debris
Shape & HBR
Box + 1 Pan, 8.86 m
Radar Cross Section
13.562 m², Large (>1 m²)

Expand to show TLE details & history

TLE from 17 hours ago
0 STARLINK-1283
1 45389U 20019AF  25128.58289044 -.00008349  00000-0 -54179-3 0  9994
2 45389  53.0562  76.2903 0001608  80.8597 279.2573 15.06428974284028
Epoch: 2025-05-08T13:59Z
Definitive object data (Epoch: 2025-05-08T13:59:21.733Z)
Latitude
-0.00012°
Longitude
-0.20165°
Altitude
547.823 km
Speed
7.589 km/s
True Right ascension
05h 05m 09s
True Declination
0° 00' 00"
Sunlit
Object was in daylight at TLE epoch
Visualization TLE readout
Latitude
-52.78167°
Longitude
-103.4418°
Altitude
566.614 km
Speed
7.577 km/s
Apparent Right ascension
00h 56m 20s
Apparent Declination
-52° 59' 29"
Sunlit
Object is in daylight
Visualization observer readout
Local Sidereal Time
15:13:41
Azimuth
130.845° SE
Elevation
-63.332°
Doppler factor
1
Orbital elements
Apogee altitude
548.507 km
Perigee altitude
546.28 km
Semi-major axis
6,925.53 km
Eccentricity
0.0001608
Inclination
53.0562°
RAAN
76.2903°
Arg. of periapsis
80.8597°
True anomaly
279.23911°
Mean anomaly
279.2573°
Eccentric anomaly
279.24821°
Mean motion
3.76586 °/min
BSTAR
-0.00054179
Orbital period
95.6 mins
Loading maneuver chart data...
Loading SW <> Apogee altitude chart data...
Loading historical data...
Loading historical data...
Loading historical data...
Loading historical data...
Loading historical data...
Loading historical data...
Loading historical data...

STARLINK-1283 Visibility forecast

Observer location: undefined°, undefined°

Span
Click to sort rows by Start time (UTC) header in descending order
Start Az.
Max El. time (UTC)
Max El. Az.
Max El.
End time (UTC)
End Az.
6 mins2025-05-09 21:58:44.754Z184.565° SSW2025-05-09 22:01:44.754Z135.81° SSE22.948°2025-05-09 22:04:44.754Z79.424° E
6 mins2025-05-09 23:38:44.754Z259.697° W2025-05-09 23:41:44.754Z346.683° N34.938°2025-05-09 23:44:44.754Z38.412° NE
6 mins2025-05-10 04:40:44.754Z336.513° NNW2025-05-10 04:42:44.754Z17.305° NNE27.006°2025-05-10 04:46:44.754Z92.372° ESE
5 mins2025-05-10 06:20:44.754Z283.714° WNW2025-05-10 06:22:44.754Z225.578° WSW34.548°2025-05-10 06:25:44.754Z158.995° S
|